Time,TemperatureF,DewpointF,PressureIn,WindDirection,WindDirectionDegrees,WindSpeedMPH,WindSpeedGustMPH,Humidity,HourlyPrecipIn,Conditions,Clouds,dailyrainin,SoftwareType,DateUTC
2013-05-04 00:02:00,60.6,55.7,29.80,SW,225,1.7,-999.0,84,-99.99,,,0.00,Acu-Link.com,2013-05-04 04:02:00,
2013-05-04 00:17:00,60.6,55.7,29.80,West,270,1.7,-999.0,84,-99.99,,,0.00,Acu-Link.com,2013-05-04 04:17:00,
2013-05-04 00:33:00,60.6,55.4,29.79,WSW,247,2.2,-999.0,83,-99.99,,,0.00,Acu-Link.com,2013-05-04 04:33:00,
2013-05-04 00:48:00,60.4,54.5,29.79,NW,315,1.7,-999.0,81,-99.99,,,0.00,Acu-Link.com,2013-05-04 04:48:00,
2013-05-04 01:03:00,60.4,53.9,29.79,West,270,2.2,-999.0,79,-99.99,,,0.00,Acu-Link.com,2013-05-04 05:03:00,
2013-05-04 01:18:00,60.3,52.7,29.78,WNW,292,2.2,-999.0,76,-99.99,,,0.00,Acu-Link.com,2013-05-04 05:18:00,
2013-05-04 01:33:00,60.3,51.2,29.78,NE,45,2.7,-999.0,72,-99.99,,,0.00,Acu-Link.com,2013-05-04 05:33:00,
2013-05-04 01:48:00,59.9,50.8,29.77,West,270,1.7,-999.0,72,-99.99,,,0.00,Acu-Link.com,2013-05-04 05:48:00,
2013-05-04 02:03:00,59.7,50.7,29.77,NW,315,0.0,-999.0,72,-99.99,,,0.00,Acu-Link.com,2013-05-04 06:03:00,
2013-05-04 02:18:00,59.5,49.3,29.77,ESE,112,2.2,-999.0,69,-99.99,,,0.00,Acu-Link.com,2013-05-04 06:18:00,
2013-05-04 02:33:00,59.2,49.8,29.75,ENE,67,1.7,-999.0,71,-99.99,,,0.00,Acu-Link.com,2013-05-04 06:33:00,
2013-05-04 02:49:00,59.0,50.0,29.76,SE,135,1.1,-999.0,72,-99.99,,,0.00,Acu-Link.com,2013-05-04 06:49:00,
2013-05-04 03:04:00,58.8,49.8,29.76,WNW,292,2.7,-999.0,72,-99.99,,,0.00,Acu-Link.com,2013-05-04 07:04:00,
2013-05-04 03:19:00,58.5,49.5,29.76,North,0,1.7,-999.0,72,-99.99,,,0.00,Acu-Link.com,2013-05-04 07:19:00,
2013-05-04 03:34:00,58.1,49.5,29.76,NW,315,2.2,-999.0,73,-99.99,,,0.00,Acu-Link.com,2013-05-04 07:34:00,
2013-05-04 03:49:00,57.7,49.5,29.76,NNW,337,3.7,-999.0,74,-99.99,,,0.00,Acu-Link.com,2013-05-04 07:49:00,
2013-05-04 04:04:00,57.6,49.7,29.76,West,270,2.2,-999.0,75,-99.99,,,0.00,Acu-Link.com,2013-05-04 08:04:00,
2013-05-04 04:19:00,57.4,49.5,29.76,NNE,22,2.7,-999.0,75,-99.99,,,0.00,Acu-Link.com,2013-05-04 08:19:00,
2013-05-04 04:34:00,57.0,49.2,29.75,WSW,247,2.2,-999.0,75,-99.99,,,0.00,Acu-Link.com,2013-05-04 08:34:00,
2013-05-04 04:50:00,56.5,48.7,29.75,NE,45,4.2,-999.0,75,-99.99,,,0.00,Acu-Link.com,2013-05-04 08:50:00,
2013-05-04 05:05:00,56.1,48.3,29.76,East,90,1.7,-999.0,75,-99.99,,,0.00,Acu-Link.com,2013-05-04 09:05:00,
2013-05-04 05:20:00,55.8,48.3,29.76,NNE,22,2.2,-999.0,76,-99.99,,,0.00,Acu-Link.com,2013-05-04 09:20:00,
2013-05-04 05:35:00,55.4,48.0,29.77,SW,225,1.7,-999.0,76,-99.99,,,0.00,Acu-Link.com,2013-05-04 09:35:00,
2013-05-04 05:50:00,55.0,47.9,29.76,ESE,112,5.3,-999.0,77,-99.99,,,0.00,Acu-Link.com,2013-05-04 09:50:00,
2013-05-04 06:05:00,54.9,47.8,29.76,NNW,337,1.1,-999.0,77,-99.99,,,0.00,Acu-Link.com,2013-05-04 10:05:00,
2013-05-04 06:20:00,54.5,47.8,29.77,ENE,67,1.7,-999.0,78,-99.99,,,0.00,Acu-Link.com,2013-05-04 10:20:00,
2013-05-04 06:35:00,54.3,47.9,29.77,WSW,247,2.2,-999.0,79,-99.99,,,0.00,Acu-Link.com,2013-05-04 10:35:00,
2013-05-04 06:51:00,54.1,48.1,29.78,NNE,22,2.2,-999.0,80,-99.99,,,0.00,Acu-Link.com,2013-05-04 10:51:00,
2013-05-04 07:06:00,53.8,47.8,29.78,NNE,22,2.7,-999.0,80,-99.99,,,0.00,Acu-Link.com,2013-05-04 11:06:00,
2013-05-04 07:21:00,53.8,47.8,29.78,NE,45,2.2,-999.0,80,-99.99,,,0.00,Acu-Link.com,2013-05-04 11:21:00,
2013-05-04 07:36:00,53.8,48.1,29.78,NE,45,1.7,-999.0,81,-99.99,,,0.00,Acu-Link.com,2013-05-04 11:36:00,
2013-05-04 07:51:00,53.8,48.4,29.78,ENE,67,1.7,-999.0,82,-99.99,,,0.00,Acu-Link.com,2013-05-04 11:51:00,
2013-05-04 08:21:00,54.0,49.3,29.78,ENE,67,5.8,-999.0,84,-99.99,,,0.00,Acu-Link.com,2013-05-04 12:21:00,
2013-05-04 08:36:00,54.0,49.6,29.78,ESE,112,2.2,-999.0,85,-99.99,,,0.00,Acu-Link.com,2013-05-04 12:36:00,
2013-05-04 08:51:00,54.0,49.9,29.79,SE,135,0.0,-999.0,86,-99.99,,,0.00,Acu-Link.com,2013-05-04 12:51:00,
2013-05-04 09:07:00,54.1,50.6,29.78,NNW,337,4.2,-999.0,88,-99.99,,,0.00,Acu-Link.com,2013-05-04 13:07:00,
2013-05-04 09:22:00,54.9,50.8,29.78,ENE,67,3.7,-999.0,86,-99.99,,,0.00,Acu-Link.com,2013-05-04 13:22:00,
2013-05-04 09:37:00,55.9,50.8,29.77,East,90,4.2,-999.0,83,-99.99,,,0.00,Acu-Link.com,2013-05-04 13:37:00,
2013-05-04 09:52:00,56.8,51.4,29.77,NNE,22,1.7,-999.0,82,-99.99,,,0.00,Acu-Link.com,2013-05-04 13:52:00,
2013-05-04 10:07:00,57.0,51.6,29.76,ENE,67,1.7,-999.0,82,-99.99,,,0.00,Acu-Link.com,2013-05-04 14:07:00,
2013-05-04 10:22:00,57.4,51.9,29.77,NE,45,4.2,-999.0,82,-99.99,,,0.00,Acu-Link.com,2013-05-04 14:22:00,
2013-05-04 10:37:00,58.1,52.6,29.77,NE,45,5.8,-999.0,82,-99.99,,,0.00,Acu-Link.com,2013-05-04 14:37:00,
2013-05-04 10:52:00,58.5,52.4,29.76,East,90,0.0,-999.0,80,-99.99,,,0.00,Acu-Link.com,2013-05-04 14:52:00,
2013-05-04 11:07:00,59.0,52.8,29.77,WSW,247,2.7,-999.0,80,-99.99,,,0.00,Acu-Link.com,2013-05-04 15:07:00,
2013-05-04 11:23:00,60.1,53.2,29.76,NNE,22,1.7,-999.0,78,-99.99,,,0.00,Acu-Link.com,2013-05-04 15:23:00,
2013-05-04 11:38:00,60.1,53.2,29.76,NE,45,6.8,-999.0,78,-99.99,,,0.00,Acu-Link.com,2013-05-04 15:38:00,
2013-05-04 11:53:00,60.1,53.6,29.76,East,90,2.2,-999.0,79,-99.99,,,0.00,Acu-Link.com,2013-05-04 15:53:00,
2013-05-04 12:08:00,61.2,54.3,29.75,NNE,22,3.2,-999.0,78,-99.99,,,0.00,Acu-Link.com,2013-05-04 16:08:00,
2013-05-04 12:23:00,60.8,53.9,29.75,North,0,2.7,-999.0,78,-99.99,,,0.00,Acu-Link.com,2013-05-04 16:23:00,
2013-05-04 12:38:00,60.4,54.2,29.76,West,270,1.1,-999.0,80,-99.99,,,0.00,Acu-Link.com,2013-05-04 16:38:00,
2013-05-04 12:53:00,60.3,54.1,29.76,ENE,67,1.1,-999.0,80,-99.99,,,0.00,Acu-Link.com,2013-05-04 16:53:00,
2013-05-04 13:08:00,60.3,54.4,29.76,SE,135,1.1,-999.0,81,-99.99,,,0.00,Acu-Link.com,2013-05-04 17:08:00,
2013-05-04 13:23:00,60.3,55.1,29.75,South,180,1.7,-999.0,83,-99.99,,,0.00,Acu-Link.com,2013-05-04 17:23:00,
2013-05-04 13:39:00,60.8,55.3,29.75,East,90,2.2,-999.0,82,-99.99,,,0.00,Acu-Link.com,2013-05-04 17:39:00,
2013-05-04 13:54:00,61.3,55.1,29.74,NNE,22,1.1,-999.0,80,-99.99,,,0.00,Acu-Link.com,2013-05-04 17:54:00,
2013-05-04 14:09:00,61.3,55.1,29.73,NNE,22,2.7,-999.0,80,-99.99,,,0.00,Acu-Link.com,2013-05-04 18:09:00,
2013-05-04 14:24:00,60.8,54.9,29.73,ENE,67,4.2,-999.0,81,-99.99,,,0.00,Acu-Link.com,2013-05-04 18:24:00,
2013-05-04 14:39:00,60.6,56.4,29.72,NNE,22,1.7,-999.0,86,-99.99,,,0.00,Acu-Link.com,2013-05-04 18:39:00,
2013-05-04 14:54:00,61.9,57.3,29.71,NE,45,1.1,-999.0,85,-99.99,,,0.00,Acu-Link.com,2013-05-04 18:54:00,
2013-05-04 15:09:00,61.0,56.8,29.72,WSW,247,0.0,-999.0,86,-99.99,,,0.00,Acu-Link.com,2013-05-04 19:09:00,
2013-05-04 15:24:00,60.1,56.8,29.71,ESE,112,0.0,-999.0,89,-99.99,,,0.01,Acu-Link.com,2013-05-04 19:24:00,
2013-05-04 15:39:00,59.2,56.3,29.72,WNW,292,0.0,-999.0,90,-99.99,,,0.01,Acu-Link.com,2013-05-04 19:39:00,
2013-05-04 15:55:00,58.6,56.3,29.71,NNE,22,2.2,-999.0,92,-99.99,,,0.02,Acu-Link.com,2013-05-04 19:55:00,
2013-05-04 16:10:00,58.6,56.6,29.70,SW,225,0.0,-999.0,93,-99.99,,,0.03,Acu-Link.com,2013-05-04 20:10:00,
2013-05-04 16:25:00,59.0,57.3,29.71,ENE,67,0.0,-999.0,94,-99.99,,,0.05,Acu-Link.com,2013-05-04 20:25:00,
2013-05-04 16:40:00,59.4,57.7,29.70,ESE,112,1.7,-999.0,94,-99.99,,,0.10,Acu-Link.com,2013-05-04 20:40:00,
2013-05-04 16:55:00,59.5,57.8,29.69,NW,315,1.7,-999.0,94,-99.99,,,0.10,Acu-Link.com,2013-05-04 20:55:00,
2013-05-04 17:10:00,59.7,58.0,29.68,NNE,22,1.7,-999.0,94,-99.99,,,0.12,Acu-Link.com,2013-05-04 21:10:00,
2013-05-04 17:25:00,60.1,58.4,29.70,NE,45,2.7,-999.0,94,-99.99,,,0.13,Acu-Link.com,2013-05-04 21:25:00,
2013-05-04 17:40:00,59.7,58.0,29.69,ENE,67,0.0,-999.0,94,-99.99,,,0.13,Acu-Link.com,2013-05-04 21:40:00,
2013-05-04 17:55:00,59.7,58.0,29.69,SW,225,2.7,-999.0,94,-99.99,,,0.14,Acu-Link.com,2013-05-04 21:55:00,
2013-05-04 18:10:00,59.5,58.1,29.68,West,270,1.1,-999.0,95,-99.99,,,0.15,Acu-Link.com,2013-05-04 22:10:00,
2013-05-04 18:26:00,59.5,58.1,29.68,NE,45,6.3,-999.0,95,-99.99,,,0.15,Acu-Link.com,2013-05-04 22:26:00,
2013-05-04 18:41:00,59.4,58.0,29.68,East,90,1.7,-999.0,95,-99.99,,,0.15,Acu-Link.com,2013-05-04 22:41:00,
2013-05-04 18:56:00,59.0,57.6,29.67,ENE,67,2.2,-999.0,95,-99.99,,,0.15,Acu-Link.com,2013-05-04 22:56:00,
2013-05-04 19:11:00,58.8,57.4,29.66,West,270,1.1,-999.0,95,-99.99,,,0.16,Acu-Link.com,2013-05-04 23:11:00,
2013-05-04 19:26:00,58.6,57.2,29.65,WSW,247,3.2,-999.0,95,-99.99,,,0.16,Acu-Link.com,2013-05-04 23:26:00,
2013-05-04 19:41:00,58.6,57.5,29.65,NW,315,4.2,-999.0,96,-99.99,,,0.16,Acu-Link.com,2013-05-04 23:41:00,
2013-05-04 19:56:00,58.5,57.4,29.64,East,90,5.3,-999.0,96,-99.99,,,0.16,Acu-Link.com,2013-05-04 23:56:00,
2013-05-04 20:11:00,58.5,57.4,29.68,SW,225,1.7,-999.0,96,-99.99,,,0.16,Acu-Link.com,2013-05-05 00:11:00,
2013-05-04 20:26:00,58.6,57.5,29.68,South,180,1.1,-999.0,96,-99.99,,,0.16,Acu-Link.com,2013-05-05 00:26:00,
2013-05-04 20:42:00,58.6,57.8,29.66,West,270,0.0,-999.0,97,-99.99,,,0.19,Acu-Link.com,2013-05-05 00:42:00,
2013-05-04 20:57:00,58.5,57.7,29.67,NNW,337,2.2,-999.0,97,-99.99,,,0.23,Acu-Link.com,2013-05-05 00:57:00,
2013-05-04 21:12:00,58.5,57.7,29.67,West,270,2.7,-999.0,97,-99.99,,,0.24,Acu-Link.com,2013-05-05 01:12:00,
2013-05-04 21:27:00,58.5,57.7,29.66,SW,225,2.2,-999.0,97,-99.99,,,0.25,Acu-Link.com,2013-05-05 01:27:00,
2013-05-04 21:42:00,58.5,57.7,29.66,SW,225,3.7,-999.0,97,-99.99,,,0.25,Acu-Link.com,2013-05-05 01:42:00,
2013-05-04 21:57:00,58.5,57.7,29.68,NE,45,3.2,-999.0,97,-99.99,,,0.25,Acu-Link.com,2013-05-05 01:57:00,
2013-05-04 22:12:00,58.5,57.7,29.67,West,270,3.2,-999.0,97,-99.99,,,0.25,Acu-Link.com,2013-05-05 02:12:00,
2013-05-04 22:27:00,58.5,57.7,29.66,SSW,202,2.2,-999.0,97,-99.99,,,0.25,Acu-Link.com,2013-05-05 02:27:00,
2013-05-04 22:42:00,58.5,57.7,29.67,WSW,247,2.7,-999.0,97,-99.99,,,0.25,Acu-Link.com,2013-05-05 02:42:00,
2013-05-04 22:58:00,58.5,57.7,29.67,North,0,1.1,-999.0,97,-99.99,,,0.25,Acu-Link.com,2013-05-05 02:58:00,
2013-05-04 23:13:00,58.5,57.7,29.67,South,180,3.7,-999.0,97,-99.99,,,0.25,Acu-Link.com,2013-05-05 03:13:00,
2013-05-04 23:28:00,58.6,57.8,29.66,NE,45,2.2,-999.0,97,-99.99,,,0.25,Acu-Link.com,2013-05-05 03:28:00,
2013-05-04 23:43:00,58.6,57.8,29.65,ESE,112,0.0,-999.0,97,-99.99,,,0.25,Acu-Link.com,2013-05-05 03:43:00,
2013-05-04 23:58:00,58.6,57.8,29.65,NNW,337,1.1,-999.0,97,-99.99,,,0.25,Acu-Link.com,2013-05-05 03:58:00,